CT1EBQ-13 Weather Reports


time (UTC)temp
F
wind
direction
speed
knots
gust
knots
rain 1hr
in
rain 24hr
in
rain mn
in
humidity
%
barometer
mb
20260508122448 67 187 7.8 10.4 0.00 0.00 0.00 45 1009.0
20260508120445 67 187 7.8 10.4 0.00 0.00 0.00 45 1009.0
20260508114443 67 187 7.8 10.4 0.00 0.00 0.00 45 1009.0
20260508112442 61 188 7.8 11.3 0.00 0.00 0.00 55 1010.0
20260508110440 60 188 7.8 11.3 0.00 0.00 0.00 55 1010.0
20260508104440 60 188 7.8 11.3 0.00 0.00 0.00 55 1010.0
20260508102440 60 188 7.8 11.3 0.00 0.00 0.00 55 1010.0
20260508100438 60 188 7.8 11.3 0.00 0.00 0.00 55 1010.0
20260508094436 60 188 7.8 11.3 0.00 0.00 0.00 55 1010.0
20260508092435 58 187 6.1 10.4 0.00 0.00 0.00 61 1010.0
20260508090435 58 187 6.1 10.4 0.00 0.00 0.00 61 1010.0
20260508084435 58 187 6.1 10.4 0.00 0.00 0.00 61 1010.0
20260508082435 56 255 2.6 2.6 0.00 0.00 0.00 84 1010.0
20260508080434 56 255 2.6 2.6 0.00 0.00 0.00 84 1010.0
20260508074434 56 255 2.6 2.6 0.00 0.00 0.00 84 1010.0
20260508072431 56 255 2.6 2.6 0.00 0.00 0.00 84 1010.0
20260508070430 56 255 2.6 2.6 0.00 0.00 0.00 84 1010.0
20260508064428 56 255 2.6 2.6 0.00 0.00 0.00 84 1010.0
20260508062428 56 255 2.6 2.6 0.00 0.00 0.00 84 1010.0
20260508060427 56 255 2.6 2.6 0.00 0.00 0.00 84 1010.0
20260508054425 56 255 2.6 2.6 0.00 0.00 0.00 84 1010.0
20260508053737 56 255 2.6 2.6 0.00 0.00 0.00 84 1009.0
20260508051736 56 255 2.6 2.6 0.00 0.00 0.00 84 1009.0
20260508045736 56 255 2.6 2.6 0.00 0.00 0.00 84 1009.0
20260508043735 56 255 2.6 2.6 0.00 0.00 0.00 84 1009.0
20260508041734 56 255 2.6 2.6 0.00 0.00 0.00 84 1010.0
20260508035734 56 255 2.6 2.6 0.00 0.00 0.00 84 1010.0
20260508033733 56 255 2.6 2.6 0.00 0.00 0.00 84 1010.0
20260508031732 56 255 2.6 2.6 0.00 0.00 0.00 84 1010.0
20260508025729 56 255 2.6 2.6 0.00 0.00 0.00 84 1010.0
20260508023725 56 255 2.6 2.6 0.00 0.00 0.00 84 1010.0
20260508021724 56 255 2.6 2.6 0.00 0.00 0.00 84 1010.0
20260508015722 56 255 2.6 2.6 0.00 0.00 0.00 84 1010.0
20260508013719 58 332 3.5 8.7 0.00 0.00 0.00 80 1010.0
20260508011718 58 332 3.5 8.7 0.00 0.00 0.00 80 1010.0
20260508005718 58 332 3.5 8.7 0.00 0.00 0.00 80 1010.0
20260508003716 58 332 3.5 8.7 0.00 0.00 0.00 80 1010.0
20260508001715 58 332 3.5 8.7 0.00 0.00 0.00 80 1010.0
20260507235715 58 332 3.5 8.7 0.00 0.00 0.00 80 1010.0
20260507233714 58 332 3.5 8.7 0.00 0.00 0.00 80 1010.0
20260507231712 58 332 3.5 8.7 0.00 0.00 0.00 80 1011.0
20260507225712 58 332 3.5 8.7 0.00 0.00 0.00 80 1011.0
20260507223711 58 332 3.5 8.7 0.00 0.00 0.00 80 1011.0
20260507221710 58 332 3.5 8.7 0.00 0.00 0.00 80 1011.0
20260507215709 58 332 3.5 8.7 0.00 0.00 0.00 80 1011.0
20260507213709 59 283 3.5 6.1 0.00 0.00 0.00 79 1011.0
20260507211706 59 283 3.5 6.1 0.00 0.00 0.00 79 1012.0
20260507205705 59 283 3.5 6.1 0.00 0.00 0.00 79 1012.0
20260507203703 60 332 6.1 13.0 0.00 0.00 0.00 76 1012.0
20260507201702 60 332 6.1 13.0 0.00 0.00 0.00 76 1011.0
20260507195702 61 332 6.1 13.0 0.00 0.00 0.00 76 1011.0
20260507193702 62 315 7.8 13.9 0.00 0.00 0.00 70 1011.0
20260507191702 62 315 7.8 13.9 0.00 0.00 0.00 70 1010.0
20260507185701 63 315 7.8 13.9 0.00 0.00 0.00 70 1010.0
20260507183701 66 296 9.6 13.0 0.00 0.00 0.00 63 1009.0
20260507181659 66 296 9.6 13.0 0.00 0.00 0.00 63 1009.0
20260507175652 67 296 9.6 13.0 0.00 0.00 0.00 63 1009.0
20260507173651 70 294 13.0 12.2 0.00 0.00 0.00 54 1009.0
20260507171703 70 294 13.0 12.2 0.00 0.00 0.00 54 1008.0
20260507165701 70 294 13.0 12.2 0.00 0.00 0.00 54 1008.0
20260507163700 71 231 7.8 8.7 0.00 0.00 0.00 36 1008.0
20260507161658 71 231 7.8 8.7 0.00 0.00 0.00 36 1008.0
20260507155657 71 231 7.8 8.7 0.00 0.00 0.00 36 1008.0
20260507153657 71 231 7.8 8.7 0.00 0.00 0.00 36 1008.0
20260507151656 71 231 7.8 8.7 0.00 0.00 0.00 36 1008.0
20260507145655 71 231 7.8 8.7 0.00 0.00 0.00 36 1008.0
20260507143654 71 231 7.8 8.7 0.00 0.00 0.00 36 1009.0
20260507141653 71 231 7.8 8.7 0.00 0.00 0.00 36 1009.0
20260507135653 71 231 7.8 8.7 0.00 0.00 0.00 36 1009.0
20260507133651 67 279 5.2 4.3 0.00 0.00 0.00 50 1009.0
20260507131649 67 279 5.2 4.3 0.00 0.00 0.00 50 1009.0
20260507125647 67 279 5.2 4.3 0.00 0.00 0.00 50 1009.0
20260507123645 67 279 5.2 4.3 0.00 0.00 0.00 50 1009.0